Location: Derby
(52.9213°N, 1.4761°W)
Time: 17:42:08
(UTC+01:00)

Tiros 1 - Pass Details

Date: 22 May 2025
Orbit: 620 x 651 km, 48.4° (Epoch: 13 June)

Event Time Altitude Azimuth Distance (km) Brightness Sun altitude
Rises 19:18:10 0° 247° (WSW) 2,893 11.4 14.0°
Reaches altitude 10° 19:20:32 10° 241° (WSW) 1,991 10.5 13.6°
Maximum altitude 19:24:52 44° 169° (S) 869 7.8 13.0°
Drops below altitude 10° 19:29:16 10° 98° (E) 2,009 9.1 12.4°
Sets 19:31:40 0° 92° (E) 2,923 9.9 12.0°
